WA2GUG Weather Reports


Display with metric or nautical units.
time (UTC)temp
F
wind
direction
speed
MPH
gust
MPH
rain 1hr
in
rain 24hr
in
rain mn
in
humidity
%
barometer
mb
20210305165110 39 270 4.0 10.0 0.00 0.00 0.00 1009.0
20210305164417 38 4.0 10.0 0.00 0.00 0.00 80 1009.0
20210305164220 37 112 4.0 8.0 0.00 0.00 0.00 1009.0
20210305163956 38 4.0 8.0 0.00 0.00 0.00 86 1009.0
20210305163537 37 303 4.0 10.0 0.00 0.00 0.00 1009.0
20210305163151 37 5.0 10.0 0.00 0.00 0.00 1009.0
20210305162119 35 270 3.0 8.0 0.00 0.00 0.00 1009.0
20210305161349 34 5.0 13.0 0.00 0.00 0.00 1009.0
20210305160846 35 5.0 13.0 0.00 0.00 0.00
20210305160346 35 5.0 12.0 0.00 0.00 0.00
20210305155846 33 225 5.0 13.0 0.00 0.00 0.00
20210305155627 32 0 6.0 13.0 0.00 0.00 0.00 1009.0
20210305154913 32 0 6.0 99.0 0.00 0.00 0.00
20210305154348 32 247 65.0 99.0 0.00 0.00 0.00 1009.0
20210305153846 31 90 5.0 13.0 0.00 0.00 0.00 1009.0
20210305153347 32 315 5.0 13.0 0.00 0.00 0.00 1010.0
20210305153125 32 3.0 10.0 0.00 0.00 0.00 1009.0
20210305152923 31 292 5.0 10.0 0.00 0.00 0.00 74 2896.0
20210305151913 30 4.0 7.0 0.00 0.00 0.00 76 4014.0
20210305151355 29 4.0 9.0 0.00 0.00 0.00 1009.0
20210305150848 30 292 4.0 9.0 0.00 0.00 0.00
20210305150347 31 4.0 12.0 0.00 0.00 0.00 1592.0
20210305150029 30 4.0 12.0 0.00 0.00 0.00
20210305145827 30 3.0 8.0 0.00 0.00 0.00 1010.0
20210305145107 30 4.0 8.0 0.00 0.00 0.00
20210305144346 30 4.0 12.0 0.00 0.00 0.00
20210305143851 31 4.0 12.0 0.00 0.00 0.00 2747.0
20210305143350 29 315 5.0 10.0 0.00 0.00 0.00 99 1009.0
20210305142847 30 5.0 10.0 0.00 0.00 0.00
20210305142727 29 5.0 99.0 0.00 0.00 0.00 1010.0
20210305141923 30 337 399.0 99.0 0.00 0.00 0.00 1010.0
20210305141347 28 4.0 9.0 0.00 0.00 0.00 68 1010.0
20210305140846 28 5.0 9.0 0.00 0.00 0.00 63
20210305140441 28 5.0 8.0 0.00 0.00 0.00 72 1010.0
20210305140155 28 4.0 7.0 0.00 0.00 0.00
20210305135936 28 326 3.0 99.0 0.00 0.00 0.00 90 1010.0
20210305135142 27 337 399.0 99.0 0.00 0.00 0.00 1010.0
20210305134346 27 5.0 10.0 0.00 0.00 0.00 3301.0
20210305133845 26 4.0 10.0 0.00 0.00 0.00 78
20210305133413 25 5.0 10.0 0.00 0.00 0.00 80 1010.0
20210305132937 26 4.0 8.0 0.00 0.00 0.00 86 1010.0
20210305132833 24 4.0 15.0 0.00 0.00 0.00 1010.0
20210305131948 24 315 4.0 15.0 0.00 0.00 0.00
20210305131350 23 4.0 8.0 0.00 0.00 0.00 82 1010.0
20210305130845 22 0 4.0 11.0 0.00 0.00 0.00 73 1010.0
20210305130512 21 4.0 11.0 0.00 0.00 0.00 74 1010.0
20210305130137 21 315 5.0 9.0 0.00 0.00 0.00 975.0
20210305125936 21 3.0 8.0 0.00 0.00 0.00 1010.0
20210305125053 21 90 5.0 8.0 0.00 0.00 0.00 1010.0
20210305124350 22 4.0 8.0 0.00 0.00 0.00 1010.0
20210305123847 22 4.0 7.0 0.00 0.00 0.00 971.0
20210305123544 21 4.0 11.0 0.00 0.00 0.00 1010.0
20210305123313 21 5.0 11.0 0.00 0.00 0.00
20210305123114 20 3.0 7.0 0.00 0.00 0.00 1010.0
20210305122059 19 4.0 8.0 0.00 0.00 0.00
20210305121350 19 4.0 8.0 0.00 0.00 0.00 951.0
20210305120854 18 4.0 7.0 0.00 0.00 0.00 1010.0
20210305120348 18 3.0 8.0 0.00 0.00 0.00
20210305115837 18 3.0 8.0 0.00 0.00 0.00 3319.0
20210305115129 18 3.0 6.0 0.00 0.00 0.00 1009.0
20210305114351 18 3.0 8.0 0.00 0.00 0.00 1009.0
20210305113847 18 7 4.0 8.0 0.00 0.00 0.00 91
20210305113348 18 0 4.0 8.0 0.00 0.00 0.00
20210305112959 18 3.0 10.0 0.00 0.00 0.00 1009.0
20210305112751 18 157 4.0 10.0 0.00 0.00 0.00
20210305112015 18 4.0 7.0 0.00 0.00 0.00 82
20210305111352 18 4.0 7.0 0.00 0.00 0.00 92 1009.0
20210305110847 18 3.0 7.0 0.00 0.00 0.00
20210305110350 18 3.0 6.0 0.00 0.00 0.00 3351.0
20210305110030 18 33 4.0 6.0 0.00 0.00 0.00
20210305105832 18 3.0 6.0 0.00 0.00 0.00
20210305105036 18 0 3.0 12.0 0.00 0.00 0.00 1009.0
20210305104346 18 5.0 12.0 0.00 0.00 0.00
20210305103848 18 78 3.0 9.0 0.00 0.00 0.00 81
20210305103359 19 5.0 12.0 0.00 0.00 0.00 89
20210305102848 19 5.0 99.0 0.00 0.00 0.00
20210305102607 19 80.0 99.0 0.00 0.00 0.00 89
20210305102021 19 225 5.0 8.0 0.00 0.00 0.00 1009.0
20210305101345 19 4.0 15.0 0.00 0.00 0.00
20210305100849 19 5.0 15.0 0.00 0.00 0.00 1009.0
20210305100348 19 5.0 13.0 0.00 0.00 0.00
20210305100045 19 4.0 13.0 0.00 0.00 0.00 90 1009.0
20210305095814 19 5.0 13.0 0.00 0.00 0.00 94 1009.0
20210305094931 19 0 4.0 10.0 0.00 0.00 0.00 1009.0
20210305094347 19 4.0 10.0 0.00 0.00 0.00 1009.0
20210305093845 19 4.0 8.0 0.00 0.00 0.00 1009.0
20210305093347 19 5.0 13.0 0.00 0.00 0.00
20210305092900 19 315 4.0 13.0 0.00 0.00 0.00
20210305092755 20 4.0 10.0 0.00 0.00 0.00
20210305092056 20 22 3.0 11.0 0.00 0.00 0.00 1009.0
20210305091346 20 5.0 11.0 0.00 0.00 0.00 1009.0
20210305090847 20 5.0 10.0 0.00 0.00 0.00 1009.0
20210305090347 20 315 4.0 8.0 0.00 0.00 0.00 1009.0
20210305085845 20 270 4.0 99.0 0.00 0.00 0.00 1009.0
20210305085630 21 0 99.0 99.0 0.00 0.00 0.00 89 1009.0
20210305085050 21 3.0 10.0 0.00 0.00 0.00 1009.0
20210305084346 21 2.0 8.0 0.00 0.00 0.00 1009.0
20210305083845 21 315 4.0 11.0 0.00 0.00 0.00
20210305083351 21 270 4.0 11.0 0.00 0.00 0.00 1009.0
20210305083109 21 0 3.0 8.0 0.00 0.00 0.00
20210305082834 21 3.0 8.0 0.00 0.00 0.00 1009.0
20210305082051 21 4.0 8.0 0.00 0.00 0.00 89 1009.0
20210305081345 21 315 3.0 99.0 0.00 0.00 0.00
20210305080345 22 4.0 12.0 0.00 0.00 0.00 1009.0
20210305080022 22 0 4.0 12.0 0.00 0.00 0.00 8632.0
20210305075905 22 45 3.0 8.0 0.00 0.00 0.00 1009.0
20210305075033 22 3.0 8.0 0.00 0.00 0.00 996.0
20210305074346 22 315 3.0 12.0 0.00 0.00 0.00 89 1009.0
20210305073846 22 4.0 12.0 0.00 0.00 0.00 3343.0
20210305073346 22 3.0 8.0 0.00 0.00 0.00
20210305072902 22 3.0 6.0 0.00 0.00 0.00
20210305072748 22 3.0 8.0 0.00 0.00 0.00 1009.0
20210305071946 23 3.0 8.0 0.00 0.00 0.00 1009.0
20210305071345 23 270 3.0 6.0 0.00 0.00 0.00 1009.0
20210305070851 23 3.0 9.0 0.00 0.00 0.00 99 1009.0
20210305070345 23 315 4.0 9.0 0.00 0.00 0.00 1009.0
20210305070026 23 3.0 7.0 0.00 0.00 0.00 4541.0
20210305065801 23 3.0 99.0 0.00 0.00 0.00 80
20210305064346 23 4.0 10.0 0.00 0.00 0.00 1009.0
20210305063850 23 3.0 10.0 0.00 0.00 0.00 1009.0
20210305063345 23 3.0 8.0 0.00 0.00 0.00 76 1009.0
20210305063059 23 348 3.0 6.0 0.00 0.00 0.00 1009.0
20210305062915 23 3.0 5.0 0.00 0.00 0.00 1009.0
20210305062144 24 3.0 7.0 0.00 0.00 0.00 81
20210305061350 24 90 3.0 7.0 0.00 0.00 0.00
20210305060845 24 157 2.0 8.0 0.00 0.00 0.00 1009.0
20210305060359 24 4.0 11.0 0.00 0.00 0.00 1009.0
20210305055937 24 5.0 11.0 0.00 0.00 0.00
20210305055756 24 4.0 8.0 0.00 0.00 0.00
20210305054917 24 4.0 7.0 0.00 0.00 0.00 1009.0
20210305054348 24 337 3.0 10.0 0.00 0.00 0.00 92 2183.0
20210305053847 24 0 4.0 12.0 0.00 0.00 0.00 1009.0
20210305053347 24 5.0 12.0 0.00 0.00 0.00 82 1009.0
20210305052855 24 4.0 6.0 0.00 0.00 0.00 1010.0
20210305052652 25 3.0 7.0 0.00 0.00 0.00 90
20210305051928 25 4.0 7.0 0.00 0.00 0.00
20210305051348 25 4.0 12.0 0.00 0.00 0.00 77
20210305050845 25 5.0 12.0 0.00 0.00 0.00
20210305050345 25 5.0 12.0 0.00 0.00 0.00 1010.0
20210305045905 25 4.0 10.0 0.00 0.00 0.00
20210305045757 25 5.0 7.0 0.00 0.00 0.00 1010.0
20210305045031 25 4.0 10.0 0.00 0.00 0.00
20210305044345 25 5.0 10.0 0.00 0.00 0.00
20210305043845 25 3.0 10.0 0.00 0.00 0.00 1010.0
20210305043345 25 5.0 10.0 0.00 0.00 0.00
20210305043029 25 4.0 10.0 0.00 0.00 0.00 1010.0
20210305042829 25 5.0 10.0 0.00 0.00 0.00
20210305041910 25 337 3.0 7.0 0.00 0.00 0.00
20210305041351 25 3.0 9.0 0.00 0.00 0.00 3320.0
20210305040845 25 5.0 9.0 0.00 0.00 0.00 1010.0
20210305040449 25 270 3.0 10.0 0.00 0.00 0.00
20210305040230 25 4.0 10.0 0.00 0.00 0.00
20210305040031 25 45 3.0 9.0 0.00 0.00 0.00 1010.0
20210305035440 25 5.0 9.0 0.00 0.00 0.00 89 1010.0
20210305034345 25 5.0 9.0 0.00 0.00 0.00 1010.0
20210305033856 25 5.0 11.0 0.00 0.00 0.00
20210305033359 25 5.0 11.0 0.00 0.00 0.00
20210305032845 25 4.0 10.0 0.00 0.00 0.00 90 1010.0
20210305032442 25 3.0 12.0 0.00 0.00 0.00 1010.0
20210305031853 25 4.0 12.0 0.00 0.00 0.00 86 1010.0
20210305031345 25 270 3.0 10.0 0.00 0.00 0.00 94
20210305030845 25 4.0 10.0 0.00 0.00 0.00 1010.0
20210305030356 25 4.0 8.0 0.00 0.00 0.00 86 1010.0
20210305030026 25 292 4.0 8.0 0.00 0.00 0.00 1010.0
20210305025826 25 4.0 11.0 0.00 0.00 0.00
20210305024926 25 5.0 12.0 0.00 0.00 0.00 1010.0
20210305024345 24 6.0 12.0 0.00 0.00 0.00
20210305023845 24 5.0 13.0 0.00 0.00 0.00
20210305023345 24 315 5.0 13.0 0.00 0.00 0.00
20210305022943 24 5.0 9.0 0.00 0.00 0.00
20210305022829 24 3.0 6.0 0.00 0.00 0.00 1010.0
20210305021924 24 4.0 6.0 0.00 0.00 0.00 1010.0
20210305021359 24 45 3.0 7.0 0.00 0.00 0.00 93 1010.0
20210305020845 24 3.0 10.0 0.00 0.00 0.00
20210305020345 24 315 4.0 10.0 0.00 0.00 0.00 1010.0
20210305020038 24 4.0 8.0 0.00 0.00 0.00 1010.0
20210305015841 24 4.0 8.0 0.00 0.00 0.00 99
20210305015034 24 4.0 7.0 0.00 0.00 0.00 1010.0
20210305014346 24 3.0 7.0 0.00 0.00 0.00
20210305013846 24 4.0 8.0 0.00 0.00 0.00 1010.0
20210305013353 24 337 3.0 9.0 0.00 0.00 0.00 1010.0
20210305013017 24 315 3.0 12.0 0.00 0.00 0.00
20210305012824 24 4.0 12.0 0.00 0.00 0.00 89
20210305012131 24 315 4.0 9.0 0.00 0.00 0.00 93 1010.0
20210305011345 24 4.0 9.0 0.00 0.00 0.00 90 3730.0
20210305010845 24 5.0 9.0 0.00 0.00 0.00 90
20210305010345 24 5.0 9.0 0.00 0.00 0.00 3358.0
20210305005938 24 4.0 12.0 0.00 0.00 0.00
20210305005806 24 0 4.0 12.0 0.00 0.00 0.00 75 1010.0
20210305005114 24 5.0 9.0 0.00 0.00 0.00 3358.0
20210305004345 24 22 5.0 11.0 0.00 0.00 0.00 1010.0
20210305003845 25 5.0 11.0 0.00 0.00 0.00 1010.0
20210305003345 25 4.0 9.0 0.00 0.00 0.00 1010.0
20210305003033 25 4.0 13.0 0.00 0.00 0.00 93
20210305002708 25 5.0 13.0 0.00 0.00 0.00 91 1010.0
20210305001943 25 4.0 10.0 0.00 0.00 0.00
20210305001345 25 5.0 10.0 0.00 0.00 0.00 1010.0
20210305000846 26 4.0 13.0 0.00 0.00 0.00 1010.0
20210305000603 26 5.0 13.0 0.00 0.00 0.00 1010.0
20210304235927 26 3.0 12.0 0.00 0.00 0.00
20210304235123 26 4.0 12.0 0.00 0.00 0.00
20210304234345 27 3.0 7.0 0.00 0.00 0.00 990.0
20210304233847 27 315 3.0 9.0 0.00 0.00 0.00
20210304233350 27 292 3.0 9.0 0.00 0.00 0.00
20210304233149 27 3.0 12.0 0.00 0.00 0.00 1010.0
20210304232916 27 45 5.0 12.0 0.00 0.00 0.00
20210304232115 27 33 3.0 6.0 0.00 0.00 0.00 87 1009.0
20210304231344 27 3.0 8.0 0.00 0.00 0.00 3155.0
20210304230845 27 0 4.0 8.0 0.00 0.00 0.00 80 5706.0
20210304230351 27 4.0 8.0 0.00 0.00 0.00
20210304230122 27 292 5.0 9.0 0.00 0.00 0.00
20210304225915 28 292 4.0 10.0 0.00 0.00 0.00 2164.0
20210304224933 28 4.0 10.0 0.00 0.00 0.00 99 4823.0
20210304224349 28 3.0 10.0 0.00 0.00 0.00 86
20210304223844 28 5.0 10.0 0.00 0.00 0.00 1009.0
20210304223358 29 3.0 9.0 0.00 0.00 0.00 1009.0
20210304223022 30 4.0 9.0 0.00 0.00 0.00 1009.0
20210304222813 32 315 4.0 8.0 0.00 0.00 0.00 1009.0
20210304221904 34 315 4.0 9.0 0.00 0.00 0.00
20210304221346 35 45 4.0 11.0 0.00 0.00 0.00 1009.0
20210304220844 37 3.0 11.0 0.00 0.00 0.00 3935.0
20210304220345 37 3.0 9.0 0.00 0.00 0.00 1009.0
20210304220144 37 4.0 9.0 0.00 0.00 0.00
20210304220034 40 4.0 6.0 0.00 0.00 0.00 1009.0
20210304215144 40 3.0 13.0 0.00 0.00 0.00
20210304214345 38 315 5.0 13.0 0.00 0.00 0.00 2574.0
20210304213857 39 5.0 12.0 0.00 0.00 0.00 1009.0
20210304213344 41 6.0 12.0 0.00 0.00 0.00 2587.0
20210304212942 44 4.0 8.0 0.00 0.00 0.00 1008.0
20210304212807 45 3.0 6.0 0.00 0.00 0.00 1009.0
20210304211905 44 3.0 7.0 0.00 0.00 0.00 3901.0
20210304210844 43 5.0 13.0 0.00 0.00 0.00
20210304210345 44 3.0 8.0 0.00 0.00 0.00
20210304205939 43 5.0 9.0 0.00 0.00 0.00 1009.0
20210304205848 43 4.0 11.0 0.00 0.00 0.00
20210304205041 42 45 6.0 11.0 0.00 0.00 0.00 1009.0
20210304204344 43 5.0 10.0 0.00 0.00 0.00 1009.0
20210304203851 45 5.0 10.0 0.00 0.00 0.00
20210304203624 44 6.0 10.0 0.00 0.00 0.00 1009.0
20210304203250 45 348 5.0 8.0 0.00 0.00 0.00 2176.0
20210304203109 45 4.0 9.0 0.00 0.00 0.00 1009.0
20210304202142 46 4.0 9.0 0.00 0.00 0.00 1009.0
20210304201346 44 5.0 10.0 0.00 0.00 0.00 1009.0
20210304200845 44 5.0 10.0 0.00 0.00 0.00 1009.0
20210304200435 46 5.0 9.0 0.00 0.00 0.00
20210304200147 46 5.0 9.0 0.00 0.00 0.00
20210304195941 47 315 4.0 9.0 0.00 0.00 0.00 1009.0
20210304195044 47 3.0 11.0 0.00 0.00 0.00 1009.0
20210304194345 46 5.0 13.0 0.00 0.00 0.00 1009.0
20210304193845 47 5.0 13.0 0.00 0.00 0.00
20210304193401 48 4.0 9.0 0.00 0.00 0.00 1008.0
20210304193124 48 3.0 7.0 0.00 0.00 0.00
20210304192923 46 4.0 8.0 0.00 0.00 0.00 1009.0
20210304191957 43 5.0 14.0 0.00 0.00 0.00
20210304191348 44 45 7.0 14.0 0.00 0.00 0.00
20210304190851 45 22 5.0 11.0 0.00 0.00 0.00
20210304190348 45 5.0 9.0 0.00 0.00 0.00
20210304185851 48 292 4.0 9.0 0.00 0.00 0.00 1009.0
20210304185124 46 4.0 9.0 0.00 0.00 0.00 99 5673.0
20210304184355 46 270 4.0 99.0 0.00 0.00 0.00 1009.0
20210304183844 46 22 99.0 99.0 0.00 0.00 0.00
20210304183356 44 4.0 9.0 0.00 0.00 0.00
20210304182916 44 5.0 9.0 0.00 0.00 0.00
20210304182757 46 0 4.0 10.0 0.00 0.00 0.00
20210304182032 43 22 4.0 10.0 0.00 0.00 0.00 1009.0
20210304181345 46 0 3.0 6.0 0.00 0.00 0.00
20210304180849 41 3.0 9.0 0.00 0.00 0.00 1009.0
20210304180344 40 5.0 9.0 0.00 0.00 0.00
20210304180055 43 0 3.0 9.0 0.00 0.00 0.00 89 1009.0
20210304175816 45 3.0 9.0 0.00 0.00 0.00 2164.0
20210304174918 40 4.0 9.0 0.00 0.00 0.00 1009.0
20210304174347 38 3.0 8.0 0.00 0.00 0.00 1009.0
20210304173844 37 4.0 8.0 0.00 0.00 0.00
20210304173345 38 3.0 7.0 0.00 0.00 0.00 1009.0
20210304172844 38 3.0 11.0 0.00 0.00 0.00 1009.0
20210304172725 38 180 5.0 11.0 0.00 0.00 0.00 1009.0
20210304172047 40 4.0 8.0 0.00 0.00 0.00 1009.0
20210304171344 41 135 4.0 8.0 0.00 0.00 0.00 1009.0
20210304170923 39 225 5.0 8.0 0.00 0.00 0.00 1009.0
20210304170628 39 22 3.0 7.0 0.00 0.00 0.00 1009.0
20210304170329 38 292 3.0 10.0 0.00 0.00 0.00 1009.0
20210304170105 37 0 4.0 10.0 0.00 0.00 0.00
20210304165310 37 5.0 8.0 0.00 0.00 0.00 1009.0